Regional Weather Roundup
Issued by NWS Spokane, WA

Home | Current Version | Previous Version | Text Only | Print | Product List | Glossary On
Versions: 1 2 3 4 5 6 7 8 9 10 11 12 13 14 15 16 17 18 19 20 21 22 23 24 25 26 27 28 29 30 31 32 33 34 35 36 37 38 39 40 41 42 43 44 45 46 47 48 49 50
000
NZUS01 KOTX 200100
RWROTX
EASTERN WASHINGTON/NORTHERN IDAHO ROUNDUP
NATIONAL WEATHER SERVICE, SPOKANE WA
600 PM PDT FRI SEP 19 2014

Note: "fair" indicated few or no clouds below 12,000 feet with no
significant weather and/or obstructions to visibility.

...NORTHEAST WASHINGTON AND NORTHERN IDAHO PANHANDLE...

CITY           SKY/WX    TMP DP  RH WIND       PRES   REMARKS
SPOKANE INTL   MOCLDY    74  46  36 SW9       30.03S
SPOKANE DOWNTO PTCLDY    76  45  33 SW9       30.03R
COEUR D ALENE  MOCLDY    73  45  35 S9        30.04R
DEER PARK      PTCLDY    75  47  36 S14       30.02S

...SOUTHEAST WASHINGTON AND SOUTHERN IDAHO PANHANDLE...

CITY           SKY/WX    TMP DP  RH WIND       PRES   REMARKS
WALLA WALLA    CLEAR     81  46  29 SW5       30.00F
PULLMAN/MOSCOW PTCLDY    73  44  35 CALM      30.08S
LOWELL           N/A     68  53  58 N3        30.02R

...COLUMBIA BASIN...

CITY           SKY/WX    TMP DP  RH WIND       PRES   REMARKS
EPHRATA        CLEAR     82  47  29 S10       29.96F
MOSES LAKE     CLEAR     82  48  30 S13       29.97F
TRI CITIES     CLEAR     84  48  28 CALM      29.95S
HERMISTON      CLEAR     84  48  28 CALM      29.95F
PENDLETON      CLEAR     81  45  28 W6        29.99F

...EAST SLOPES CASCADES...

CITY           SKY/WX    TMP DP  RH WIND       PRES   REMARKS
THE DALLES     SUNNY     84  53  34 NW16G25   29.94S
YAKIMA         MOSUNNY   83  50  31 SE3       29.97S
ELLENSBURG     SUNNY     76  52  43 NW21      30.01R
WENATCHEE      SUNNY     82  48  30 NW14      29.97S
OMAK           PTCLDY    81  46  29 S12       29.95S

...SOUTHERN BRITISH COLUMBIA...

CITY           SKY/WX    TMP DP  RH WIND       PRES   REMARKS

...WESTERN MONTANA...

CITY           SKY/WX    TMP DP  RH WIND       PRES   REMARKS
MISSOULA       CLOUDY    70  44  39 W7        30.08S

...NEIGHBORING CITIES...

CITY           SKY/WX    TMP DP  RH WIND       PRES   REMARKS
SEATTLE        MOSUNNY   72  57  59 S6        30.08S



USA.gov is the U.S. government's official web portal to all federal, state and local government web resources and services.